BAW21 KLAX-PHKO

Flight info

Callsign BAW21
Flight time N/A
Altitude 36000
Route SUMMR2 FICKY R578 FITES OKALA VECKI9
Aircraft CONC/L-VGDW/C

Departure

Time 2026-04-25 03:37
Airport Los Angeles International Airport (KLAX)

Arrival

Time N/A
Airport Ellison Onizuka Kona International Airport at Keāhole (PHKO)
Time Latitude Longitude Altitude Speed Heading
2026-04-25 03:10 33.94404 -118.41125 124 ft 0 kts 83°
2026-04-25 03:20 33.94404 -118.41124 124 ft 0 kts 83°
2026-04-25 03:21 33.94403 -118.41134 124 ft 2 kts 83°
2026-04-25 03:21 33.94402 -118.41152 124 ft 2 kts 83°
2026-04-25 03:21 33.94400 -118.41164 124 ft 2 kts 83°
2026-04-25 03:21 33.94396 -118.41180 124 ft 2 kts 67°
2026-04-25 03:22 33.94389 -118.41196 124 ft 2 kts 56°
2026-04-25 03:22 33.94380 -118.41209 123 ft 2 kts 43°
2026-04-25 03:22 33.94368 -118.41221 124 ft 2 kts 31°
2026-04-25 03:22 33.94355 -118.41228 123 ft 2 kts 19°
2026-04-25 03:23 33.94340 -118.41232 124 ft 2 kts
2026-04-25 03:23 33.94326 -118.41232 124 ft 1 kts 355°
2026-04-25 03:23 33.94320 -118.41232 124 ft 0 kts 353°
2026-04-25 03:26 33.94321 -118.41232 124 ft 0 kts 353°
2026-04-25 03:26 33.94329 -118.41233 124 ft 2 kts 353°
2026-04-25 03:26 33.94358 -118.41237 123 ft 5 kts 354°
2026-04-25 03:27 33.94411 -118.41245 123 ft 9 kts 353°
2026-04-25 03:27 33.94494 -118.41257 123 ft 13 kts 353°
2026-04-25 03:27 33.94574 -118.41268 123 ft 10 kts 353°
2026-04-25 03:27 33.94639 -118.41277 124 ft 9 kts 353°
2026-04-25 03:28 33.94705 -118.41287 125 ft 9 kts 353°
2026-04-25 03:28 33.94772 -118.41281 127 ft 9 kts 34°
2026-04-25 03:28 33.94804 -118.41204 127 ft 11 kts 83°
2026-04-25 03:28 33.94815 -118.41099 127 ft 13 kts 83°
2026-04-25 03:29 33.94827 -118.40979 127 ft 15 kts 83°
2026-04-25 03:29 33.94841 -118.40842 127 ft 17 kts 82°
2026-04-25 03:29 33.94857 -118.40683 124 ft 20 kts 83°
2026-04-25 03:29 33.94875 -118.40520 124 ft 18 kts 83°
2026-04-25 03:30 33.94889 -118.40377 121 ft 16 kts 83°
2026-04-25 03:30 33.94902 -118.40246 120 ft 14 kts 83°
2026-04-25 03:30 33.94912 -118.40138 120 ft 12 kts 83°
2026-04-25 03:30 33.94922 -118.40041 118 ft 10 kts 83°
2026-04-25 03:31 33.94941 -118.39962 117 ft 8 kts 53°
2026-04-25 03:31 33.94987 -118.39928 116 ft 7 kts 13°
2026-04-25 03:31 33.95026 -118.39935 116 ft 4 kts 317°
2026-04-25 03:31 33.95036 -118.39957 116 ft 2 kts 284°
2026-04-25 03:32 33.95038 -118.39984 117 ft 3 kts 268°
2026-04-25 03:32 33.95037 -118.39997 117 ft 0 kts 264°
2026-04-25 03:36 33.95032 -118.40051 117 ft 23 kts 264°
2026-04-25 03:36 33.94982 -118.40541 124 ft 102 kts 263°
2026-04-25 03:37 33.94857 -118.41740 124 ft 187 kts 264°
2026-04-25 03:37 33.94570 -118.44256 598 ft 251 kts 261°
2026-04-25 03:37 33.94379 -118.45715 1196 ft 277 kts 261°
2026-04-25 03:37 33.94025 -118.48250 1739 ft 345 kts 263°
2026-04-25 03:38 33.94024 -118.50974 2551 ft 306 kts 275°
2026-04-25 03:38 33.94025 -118.53462 3293 ft 293 kts 261°
2026-04-25 03:38 33.93769 -118.55853 4084 ft 296 kts 266°
2026-04-25 03:38 33.93627 -118.58366 4476 ft 301 kts 266°
2026-04-25 03:39 33.93433 -118.60865 5168 ft 302 kts 265°
2026-04-25 03:39 33.93238 -118.63349 6088 ft 306 kts 266°
2026-04-25 03:39 33.93046 -118.65920 7012 ft 312 kts 265°
2026-04-25 03:39 33.92846 -118.68510 7915 ft 315 kts 265°
2026-04-25 03:40 33.92648 -118.71099 8834 ft 318 kts 265°
2026-04-25 03:40 33.92441 -118.73747 9752 ft 323 kts 264°
2026-04-25 03:40 33.92231 -118.76444 10676 ft 323 kts 264°
2026-04-25 03:40 33.92020 -118.79127 11605 ft 335 kts 264°
2026-04-25 03:41 33.91795 -118.81996 12322 ft 358 kts 264°
2026-04-25 03:41 33.91687 -118.85124 12912 ft 387 kts 273°
2026-04-25 03:41 33.91890 -118.88399 13571 ft 408 kts 271°
2026-04-25 03:41 33.91946 -118.91605 14111 ft 411 kts 270°
2026-04-25 03:42 33.92042 -118.95030 14715 ft 410 kts 272°
2026-04-25 03:42 33.92152 -118.98403 15653 ft 412 kts 271°
2026-04-25 03:42 33.92100 -119.01865 16592 ft 416 kts 259°
2026-04-25 03:42 33.91174 -119.05164 17606 ft 424 kts 242°
2026-04-25 03:43 33.89793 -119.08284 18659 ft 429 kts 248°
2026-04-25 03:43 33.88642 -119.11591 19641 ft 432 kts 249°
2026-04-25 03:43 33.87441 -119.14889 20575 ft 436 kts 248°
2026-04-25 03:43 33.86212 -119.18209 21525 ft 439 kts 248°
2026-04-25 03:44 33.84993 -119.21583 22474 ft 445 kts 248°
2026-04-25 03:44 33.83754 -119.24960 23424 ft 450 kts 248°
2026-04-25 03:44 33.82489 -119.28430 24491 ft 454 kts 248°
2026-04-25 03:44 33.81221 -119.31892 25426 ft 460 kts 248°
2026-04-25 03:45 33.79675 -119.35277 26348 ft 469 kts 233°
2026-04-25 03:45 33.77311 -119.37944 27371 ft 479 kts 217°
2026-04-25 03:45 33.74500 -119.40138 28522 ft 480 kts 222°
2026-04-25 03:45 33.71920 -119.42593 29550 ft 481 kts 224°
2026-04-25 03:46 33.69265 -119.45106 30502 ft 488 kts 222°
2026-04-25 03:46 33.66563 -119.47589 31120 ft 500 kts 223°
2026-04-25 03:46 33.63827 -119.50164 31650 ft 504 kts 223°
2026-04-25 03:46 33.61101 -119.52705 32166 ft 503 kts 223°
2026-04-25 03:47 33.58333 -119.55285 32673 ft 502 kts 223°
2026-04-25 03:47 33.55625 -119.57816 33452 ft 500 kts 223°
2026-04-25 03:47 33.52850 -119.60411 34170 ft 501 kts 223°
2026-04-25 03:47 33.50116 -119.62959 34310 ft 501 kts 223°
2026-04-25 03:48 33.47387 -119.65496 34866 ft 499 kts 223°
2026-04-25 03:48 33.44669 -119.68029 35227 ft 495 kts 223°
2026-04-25 03:48 33.41956 -119.70557 35739 ft 493 kts 223°
2026-04-25 03:48 33.39247 -119.73067 36146 ft 491 kts 223°
2026-04-25 03:49 33.36578 -119.75547 36014 ft 473 kts 223°
2026-04-25 03:49 33.34018 -119.77919 35556 ft 468 kts 224°
2026-04-25 03:49 33.28886 -119.82686 35855 ft 469 kts 223°
2026-04-25 03:50 33.26327 -119.85055 36073 ft 478 kts 223°
2026-04-25 03:50 33.23654 -119.87534 36218 ft 497 kts 223°
2026-04-25 03:50 33.20842 -119.90138 35480 ft 524 kts 223°
2026-04-25 03:50 33.17923 -119.92838 35276 ft 538 kts 222°
2026-04-25 03:51 33.14926 -119.95599 35340 ft 551 kts 222°
2026-04-25 03:51 33.11858 -119.98422 35357 ft 564 kts 222°
2026-04-25 03:51 33.08738 -120.01299 35362 ft 576 kts 222°
2026-04-25 03:51 33.05534 -120.04243 35366 ft 588 kts 222°
2026-04-25 03:52 33.02282 -120.07237 35383 ft 601 kts 222°
2026-04-25 03:52 32.98951 -120.10292 35393 ft 615 kts 222°
2026-04-25 03:52 32.95536 -120.13435 35425 ft 632 kts 222°
2026-04-25 03:52 32.91987 -120.16679 35494 ft 651 kts 221°
2026-04-25 03:53 32.88356 -120.20007 35614 ft 671 kts 221°
2026-04-25 03:53 32.84633 -120.23414 35786 ft 693 kts 221°
2026-04-25 03:53 32.80723 -120.26980 36165 ft 709 kts 221°
2026-04-25 03:53 32.76797 -120.30564 37174 ft 722 kts 221°
2026-04-25 03:54 32.72815 -120.34195 37609 ft 739 kts 221°
2026-04-25 03:54 32.68682 -120.37954 38443 ft 754 kts 221°
2026-04-25 03:54 32.64466 -120.41787 39111 ft 771 kts 221°
2026-04-25 03:54 32.60229 -120.45647 39974 ft 789 kts 221°
2026-04-25 03:55 32.55778 -120.49676 40471 ft 809 kts 221°
2026-04-25 03:55 32.51273 -120.53773 41487 ft 829 kts 221°
2026-04-25 03:55 32.46681 -120.57924 42081 ft 851 kts 221°
2026-04-25 03:55 32.41920 -120.62239 43063 ft 877 kts 221°
2026-04-25 03:56 32.36958 -120.66710 43654 ft 904 kts 220°
2026-04-25 03:56 32.31952 -120.71231 44926 ft 919 kts 220°
2026-04-25 03:56 32.26837 -120.75837 45029 ft 943 kts 220°
2026-04-25 03:56 32.21589 -120.80548 45761 ft 953 kts 220°
2026-04-25 03:57 32.16259 -120.85345 46195 ft 973 kts 219°
2026-04-25 03:57 32.10870 -120.90166 46961 ft 985 kts 219°
2026-04-25 03:57 32.05445 -120.95030 47399 ft 1000 kts 219°
2026-04-25 03:57 31.99817 -121.00062 48116 ft 1016 kts 219°
2026-04-25 03:58 31.94219 -121.05050 48570 ft 1031 kts 219°
2026-04-25 03:58 31.88454 -121.10194 49227 ft 1048 kts 219°
2026-04-25 03:58 31.82606 -121.15393 49861 ft 1065 kts 219°
2026-04-25 03:58 31.76657 -121.20675 50279 ft 1092 kts 219°
2026-04-25 03:59 31.70550 -121.26091 49898 ft 1089 kts 219°
2026-04-25 03:59 31.64511 -121.31430 49998 ft 1092 kts 219°
2026-04-25 03:59 31.58444 -121.36797 50149 ft 1089 kts 219°
2026-04-25 03:59 31.52528 -121.42170 49870 ft 1086 kts 224°
2026-04-25 04:00 31.47084 -121.48231 50212 ft 1085 kts 230°
2026-04-25 04:00 31.42042 -121.54888 50186 ft 1082 kts 230°
2026-04-25 04:00 31.37068 -121.61420 49832 ft 1081 kts 230°
2026-04-25 04:00 31.32333 -121.68190 50173 ft 1082 kts 237°
2026-04-25 04:01 31.25421 -121.83686 50096 ft 1080 kts 253°
2026-04-25 04:01 31.23596 -121.92085 50318 ft 1081 kts 261°
2026-04-25 04:01 31.22732 -122.00755 50142 ft 1082 kts 263°
2026-04-25 04:02 31.21617 -122.09365 50000 ft 1077 kts 255°
2026-04-25 04:02 31.19635 -122.17780 50284 ft 1082 kts 255°
2026-04-25 04:02 31.17965 -122.26313 50023 ft 1078 kts 260°
2026-04-25 04:02 31.16571 -122.34862 50028 ft 1081 kts 256°
2026-04-25 04:03 31.13369 -122.51942 49947 ft 1082 kts 258°
2026-04-25 04:03 31.11796 -122.60527 50102 ft 1081 kts 257°
2026-04-25 04:03 31.10202 -122.69031 50019 ft 1080 kts 257°
2026-04-25 04:04 31.07057 -122.86020 50108 ft 1081 kts 257°
2026-04-25 04:04 31.03861 -123.03111 50070 ft 1081 kts 257°
2026-04-25 04:05 31.00637 -123.20205 50022 ft 1081 kts 257°
2026-04-25 04:05 30.97408 -123.37196 50077 ft 1082 kts 257°
2026-04-25 04:06 30.94139 -123.54265 50061 ft 1083 kts 257°
2026-04-25 04:06 30.90862 -123.71247 50065 ft 1085 kts 256°
2026-04-25 04:07 30.87540 -123.88338 50070 ft 1083 kts 256°
2026-04-25 04:07 30.84216 -124.05315 50069 ft 1084 kts 256°
2026-04-25 04:08 30.80858 -124.22337 50066 ft 1084 kts 256°
2026-04-25 04:08 30.77463 -124.39416 50048 ft 1085 kts 256°
2026-04-25 04:09 30.74066 -124.56391 50052 ft 1085 kts 256°
2026-04-25 04:09 30.70646 -124.73356 50078 ft 1086 kts 256°
2026-04-25 04:10 30.67176 -124.90448 50073 ft 1088 kts 256°
2026-04-25 04:10 30.63708 -125.07398 50078 ft 1088 kts 256°
2026-04-25 04:11 30.58435 -125.32951 50060 ft 1088 kts 256°
2026-04-25 04:12 30.54919 -125.49851 50068 ft 1088 kts 256°
2026-04-25 04:12 30.51342 -125.66918 50083 ft 1090 kts 256°
2026-04-25 04:13 30.47772 -125.83833 50091 ft 1089 kts 255°
2026-04-25 04:13 30.44146 -126.00897 50093 ft 1091 kts 256°
2026-04-25 04:14 30.40530 -126.17802 50078 ft 1093 kts 255°
2026-04-25 04:14 30.36875 -126.34768 50079 ft 1092 kts 256°
2026-04-25 04:15 30.33189 -126.51771 50078 ft 1092 kts 256°
2026-04-25 04:15 30.29475 -126.68773 50093 ft 1094 kts 255°
2026-04-25 04:16 30.25750 -126.85731 50072 ft 1093 kts 255°
2026-04-25 04:16 30.21997 -127.02695 50072 ft 1093 kts 255°
2026-04-25 04:17 30.18224 -127.19643 50093 ft 1094 kts 255°
2026-04-25 04:17 30.14432 -127.36564 50090 ft 1095 kts 255°
2026-04-25 04:18 30.10609 -127.53505 50063 ft 1095 kts 255°
2026-04-25 04:18 30.06745 -127.70524 50072 ft 1098 kts 255°
2026-04-25 04:19 30.02883 -127.87429 50078 ft 1096 kts 255°
2026-04-25 04:19 29.98994 -128.04338 50091 ft 1096 kts 255°
2026-04-25 04:20 29.95093 -128.21193 50081 ft 1096 kts 255°
2026-04-25 04:20 29.91149 -128.38124 50069 ft 1097 kts 255°
2026-04-25 04:21 29.87200 -128.54977 50073 ft 1097 kts 255°
2026-04-25 04:21 29.83209 -128.71905 50091 ft 1100 kts 254°
2026-04-25 04:22 29.79194 -128.88832 50102 ft 1102 kts 254°
2026-04-25 04:22 29.75148 -129.05777 50092 ft 1104 kts 254°
2026-04-25 04:23 29.71092 -129.22656 50091 ft 1103 kts 254°
2026-04-25 04:23 29.67001 -129.39590 50110 ft 1103 kts 254°
2026-04-25 04:24 29.62877 -129.56552 50105 ft 1102 kts 254°
2026-04-25 04:24 29.58763 -129.73369 50123 ft 1103 kts 254°
2026-04-25 04:25 29.54599 -129.90291 50119 ft 1105 kts 254°
2026-04-25 04:25 29.50412 -130.07208 50091 ft 1104 kts 254°
2026-04-25 04:26 29.46204 -130.24104 50096 ft 1106 kts 254°
2026-04-25 04:26 29.41996 -130.40909 50116 ft 1106 kts 254°
2026-04-25 04:27 29.37749 -130.57768 50113 ft 1106 kts 254°
2026-04-25 04:27 29.33464 -130.74667 50113 ft 1105 kts 253°
2026-04-25 04:28 29.29179 -130.91484 50102 ft 1104 kts 253°
2026-04-25 04:28 29.24728 -131.08176 50124 ft 1101 kts 252°
2026-04-25 04:29 29.20028 -131.24742 50123 ft 1103 kts 252°
2026-04-25 04:29 29.15271 -131.41363 50099 ft 1102 kts 252°
2026-04-25 04:30 29.10508 -131.57922 50105 ft 1102 kts 252°
2026-04-25 04:30 29.05731 -131.74449 50128 ft 1100 kts 252°
2026-04-25 04:31 29.00928 -131.90982 50137 ft 1099 kts 252°
2026-04-25 04:31 28.96114 -132.07461 50095 ft 1099 kts 252°
2026-04-25 04:32 28.91276 -132.23944 50083 ft 1099 kts 252°
2026-04-25 04:32 28.86400 -132.40474 50108 ft 1098 kts 252°
2026-04-25 04:33 28.81542 -132.56854 50129 ft 1099 kts 252°
2026-04-25 04:33 28.76641 -132.73305 50112 ft 1098 kts 251°
2026-04-25 04:34 28.71736 -132.89676 50100 ft 1099 kts 251°
2026-04-25 04:34 28.66792 -133.06099 50090 ft 1097 kts 251°
2026-04-25 04:35 28.61869 -133.22377 50152 ft 1096 kts 251°
2026-04-25 04:35 28.56900 -133.38725 50157 ft 1095 kts 251°
2026-04-25 04:36 28.51925 -133.55016 50114 ft 1096 kts 251°
2026-04-25 04:36 28.46906 -133.71364 50090 ft 1094 kts 251°
2026-04-25 04:37 28.41909 -133.87573 50122 ft 1096 kts 251°
2026-04-25 04:37 28.36863 -134.03851 50119 ft 1094 kts 251°
2026-04-25 04:38 28.31823 -134.20038 50094 ft 1095 kts 251°
2026-04-25 04:38 28.26716 -134.36356 50141 ft 1095 kts 251°
2026-04-25 04:39 28.21635 -134.52527 50123 ft 1097 kts 251°
2026-04-25 04:39 28.16509 -134.68758 50100 ft 1096 kts 250°
2026-04-25 04:40 28.11366 -134.84966 50094 ft 1096 kts 250°
2026-04-25 04:40 28.06226 -135.01085 50121 ft 1099 kts 250°
2026-04-25 04:41 28.01031 -135.17305 50111 ft 1099 kts 250°
2026-04-25 04:41 27.95824 -135.33495 50099 ft 1100 kts 250°
2026-04-25 04:42 27.90586 -135.49701 50092 ft 1100 kts 251°
2026-04-25 04:42 27.85340 -135.65858 50101 ft 1100 kts 250°
2026-04-25 04:43 27.80078 -135.81988 50125 ft 1099 kts 250°
2026-04-25 04:43 27.74767 -135.98196 50120 ft 1102 kts 250°
2026-04-25 04:44 27.69498 -136.14201 50107 ft 1100 kts 250°
2026-04-25 04:44 27.64148 -136.30383 50105 ft 1101 kts 250°
2026-04-25 04:45 27.58813 -136.46449 50121 ft 1100 kts 250°
2026-04-25 04:45 27.53449 -136.62532 50123 ft 1097 kts 250°
2026-04-25 04:46 27.48108 -136.78471 50118 ft 1097 kts 250°
2026-04-25 04:46 27.42726 -136.94463 50124 ft 1097 kts 250°
2026-04-25 04:47 27.37310 -137.10490 50121 ft 1096 kts 250°
2026-04-25 04:47 27.31913 -137.26392 50117 ft 1098 kts 250°
2026-04-25 04:48 27.26452 -137.42407 50097 ft 1096 kts 250°
2026-04-25 04:48 27.21011 -137.58299 50097 ft 1094 kts 250°
2026-04-25 04:49 27.15532 -137.74232 50120 ft 1095 kts 250°
2026-04-25 04:49 27.10079 -137.90024 50126 ft 1095 kts 250°
2026-04-25 04:50 27.04547 -138.05972 50115 ft 1094 kts 250°
2026-04-25 04:50 26.99058 -138.21733 50110 ft 1094 kts 250°
2026-04-25 04:51 26.93523 -138.37515 50102 ft 1091 kts 250°
2026-04-25 04:51 26.87956 -138.53331 50100 ft 1093 kts 250°
2026-04-25 04:52 26.82385 -138.69083 50102 ft 1093 kts 249°
2026-04-25 04:52 26.76790 -138.84842 50107 ft 1094 kts 249°
2026-04-25 04:53 26.71180 -139.00583 50129 ft 1093 kts 249°
2026-04-25 04:53 26.65580 -139.16225 50102 ft 1092 kts 249°
2026-04-25 04:54 26.59925 -139.31961 50099 ft 1092 kts 249°
2026-04-25 04:54 26.54292 -139.47571 50108 ft 1090 kts 249°